This demonstration page uses our WeatherBlox Daily Observations layout. Learn more.

36.17497, -115.13722

Hourly Observations for September 21, 2018

Temp ( °F °C ) Dew Point ( °F °C ) Humidity (%) Winds ( mph kmh ) Pressure ( in mb ) Visibility ( mi km ) Precip ( " mm )
12:53 am 00:53 Clear 74 23.3 27 -2.8 17 17 NW 7 11 29.91 1013 10 16.09344 0 0
1:53 am 01:53 Clear 75 23.9 26 -3.3 16 16 WNW 8 13 29.91 1013 10 16.09344 0 0
2:53 am 02:53 Clear 71 21.7 27 -2.8 19 19 ESE 5 7 29.91 1013 10 16.09344 0 0
3:53 am 03:53 Clear 72 22.2 26 -3.3 18 18 Calm 29.91 1013 10 16.09344 0 0
4:53 am 04:53 Clear 69 20.6 29 -1.7 22 22 NW 7 11 29.94 1014 10 16.09344 0 0
5:53 am 05:53 Clear 69 20.6 34 1.1 27 27 NW 5 7 29.97 1015 10 16.09344 0 0
6:53 am 06:53 Sunny 69 20.6 33 0.6 26 26 NW 5 7 29.97 1015 10 16.09344 0 0
7:53 am 07:53 Sunny 74 23.3 30 -1.1 20 20 NNW 5 7 30 1016 10 16.09344 0 0
8:53 am 08:53 Sunny 80 26.7 28 -2.2 15 15 Calm 30 1016 10 16.09344 0 0
9:53 am 09:53 Sunny 83 28.3 27 -2.8 13 13 SE 6 9 30.03 1017 10 16.09344 0 0
10:53 am 10:53 Sunny 86 30 23 -5 10 10 E 8 13 30.03 1017 10 16.09344 0 0
11:53 am 11:53 Sunny 89 31.7 23 -5 9 9 SE 6 9 30 1016 10 16.09344 0 0
12:53 pm 12:53 Sunny 92 33.3 28 -2.2 10 10 SE 9 15 29.97 1015 10 16.09344 0 0
1:53 pm 13:53 Sunny 94 34.4 39 3.9 15 15 SE 9 15 29.94 1014 10 16.09344 0 0
2:53 pm 14:53 Sunny 94 34.4 40 4.4 15 15 S 6 9 29.91 1013 10 16.09344 0 0
3:53 pm 15:53 Sunny 96 35.6 40 4.4 14 14 ESE 13 20 29.88 1012 10 16.09344 0 0
4:53 pm 16:53 Sunny 95 35 42 5.6 16 16 SE 12 19 29.88 1012 10 16.09344 0 0
5:53 pm 17:53 Sunny 94 34.4 44 6.7 18 18 ESE 8 13 29.88 1012 10 16.09344 0 0
6:53 pm 18:53 Clear 92 33.3 44 6.7 19 19 SE 6 9 29.88 1012 10 16.09344 0 0
7:53 pm 19:53 Clear 91 32.8 43 6.1 19 19 SE 6 9 29.91 1013 10 16.09344 0 0
8:53 pm 20:53 Clear 89 31.7 44 6.7 21 21 S 5 7 29.91 1013 10 16.09344 0 0
9:53 pm 21:53 Clear 85 29.4 42 5.6 22 22 WNW 8 13 29.91 1013 10 16.09344 0 0
10:53 pm 22:53 Clear 85 29.4 34 1.1 16 16 W 6 9 29.94 1014 10 16.09344 0 0
11:53 pm 23:53 Clear 81 27.2 36 2.2 20 20 Calm 29.94 1014 10 16.09344 0 0

Powered by AerisWeather